Regional Weather Roundup
Issued by NWS Albany, NY

Home | Current Version | Previous Version | Text Only | Print | Product List | Glossary On
Versions: 1 2 3 4 5 6 7 8 9 10 11 12 13 14 15 16 17 18 19 20 21 22 23 24 25 26 27 28 29 30 31 32 33 34 35 36 37 38 39 40 41 42 43 44 45 46 47 48 49 50
000
ASUS41 KALY 011110
RWRALY

NEW YORK STATE HOURLY WEATHER ROUNDUP
NATIONAL WEATHER SERVICE ALBANY NY
600 AM EST SUN FEB 01 2015

NOTE: "FAIR" INDICATES FEW OR NO CLOUDS BELOW 12,000 FEET WITH NO
SIGNIFICANT WEATHER AND/OR NO OBSTRUCTIONS TO VISIBILITY.

NYZ032-033-038>043-046>054-057>066-NYZ062>081-011200-
EAST


CITY           SKY/WX    TMP DP  RH WIND       PRES   REMARKS
ALBANY         FLURRIES  15   8  73 S5        30.14R WCI   8
GLENS FALLS    CLOUDY     2  -4  76 CALM      30.13R
POUGHKEEPSIE   CLEAR     19   8  62 SW6       30.16R WCI  11
NEWBURGH       CLOUDY    18  10  73 W6        30.16R WCI   9
MONTGOMERY     CLOUDY    17   8  67 SW8       30.15R WCI   7
WHITE PLAINS   CLEAR     18   6  59 W6        30.17R WCI  10
ISLIP          PTCLDY     9   1  70 CALM      30.19R
NEW YORK CITY  MOCLDY    25  10  53 W12       30.22R WCI  14
CENTRAL PARK   CLOUDY    24   8  50 W8        30.23R WCI  15
$$

NYZ005>009-017-018-044>046-055-056-011200-
CENTRAL


CITY           SKY/WX    TMP DP  RH WIND       PRES   REMARKS
FULTON         CLOUDY    20  13  74 N12       30.18R WCI   8
SYRACUSE       FLURRIES  20  18  92 N8        30.16R WCI  10
ROME           CLOUDY    14  10  84 CALM      30.16R
ELMIRA         CLOUDY    19  13  77 CALM      30.15S
BINGHAMTON     CLOUDY    19  14  81 W7        30.07F WCI  10
MONTICELLO     CLOUDY    18  12  79 W9        30.09R WCI   6
$$

NYZ026>034-041>043-011200-
NORTH


CITY           SKY/WX    TMP DP  RH WIND       PRES   REMARKS
WATERTOWN      CLOUDY    12   6  77 NE10      30.23R WCI  -1
FORT DRUM      NOT AVBL
MASSENA        CLEAR      4  -1  80 NW7       30.24R WCI  -8
SARANAC LAKE   LGT SNOW   6   3  87 VRB6      30.03R FOG     WCI  -4
PLATTSBURGH    MOCLDY     5   3  91 NE6       30.16R WCI  -6
$$

NYZ001>004-010>016-019>021-011200-
WEST


CITY           SKY/WX    TMP DP  RH WIND       PRES   REMARKS
NIAGARA FALLS  MIX PCPN  26  20  77 N12       30.18R WCI  16
BUFFALO        FLURRIES  26  22  84 N7        30.16S WCI  18
DUNKIRK        CLOUDY    28  25  88 N3        30.17S
JAMESTOWN      CLOUDY    23  18  80 CALM      30.10S
WELLSVILLE     CLOUDY    22  19  89 W6        30.09S WCI  14
ROCHESTER      LGT SNOW  27  22  81 N10       30.18R WCI  17
PENN YAN       FLURRIES  27  21  78 W6        30.14S WCI  20
$$

             KEY
       WCI = WIND CHILL INDEX
       VSB = VISIBILITY
       HX  = HEAT INDEX
$$


USA.gov is the U.S. government's official web portal to all federal, state and local government web resources and services.